#timestamp,LO_Frequency,Hit,StdDev 
1505538015.7,286047007.4,N
1505538035.5,286047008.7,Y
1505538055.3,286047000.1,P
1505538075.2,286047002.2,N
1505538095.9,286047000.5,N
1505538115.7,286047001.5,N
1505538135.6,286047002.0,N
1505538155.4,286047002.7,N
1505538175.2,286046997.5,N
1505538195.0,286046997.7,N
1505538196.0,286046997.7,N
1505538215.8,286046997.1,N
1505538235.6,286046993.3,N
1505538255.4,286046995.8,N
1505538275.3,286046996.0,N
1505538295.1,286046999.2,N
1505538315.8,286046995.2,N
1505538335.7,286046992.4,N
1505538355.5,286046993.6,N
1505538375.3,286046994.1,N
1505538395.2,286046994.8,N
1505538415.9,286046996.8,N
1505538435.7,286046996.4,N
1505538455.6,286046990.9,N
1505538475.4,286046992.3,N
1505538495.2,286046996.3,N
1505538515.0,286046996.4,N
1505538516.0,286046996.4,N
1505538535.8,286046997.6,N
1505538555.6,286046998.8,N
1505538575.4,286046997.8,N
1505538595.3,286046996.4,N
1505538615.1,286046992.9,N
1505538635.8,286046988.6,Y
1505538655.7,286046993.3,P
1505538675.5,286046996.4,N
1505538695.3,286046996.0,N
1505538715.2,286046995.7,Y
1505538735.0,286047000.3,P
1505538735.9,286047000.3,N
1505538755.7,286046998.3,N
1505538775.6,286046998.0,N
1505538795.4,286047000.1,N
1505538815.2,286047000.7,N
1505538835.1,286046997.1,N
1505538836.0,286046997.1,N
1505538855.8,286046995.0,N
1505538875.6,286046993.4,Y
1505538895.5,286046996.8,P
1505538915.3,286046997.4,P
1505538935.1,286046997.8,P
1505538955.9,286046996.6,Y
1505538975.7,286047000.8,P
1505538995.5,286047002.4,N
1505539015.4,286046999.7,N
1505539035.2,286047002.3,N
1505539055.0,286047002.3,N
1505539055.9,286047002.3,N
1505539075.8,286047001.8,N
1505539095.6,286047000.0,N
1505539115.4,286046999.4,N
1505539135.3,286046999.0,N
1505539155.1,286046997.3,N
1505539156.0,286046997.3,N
1505539175.8,286046995.6,N
1505539195.7,286046996.6,N
1505539215.5,286046996.0,N
1505539235.3,286046995.1,N
1505539255.1,286046996.9,N
1505539275.9,286046996.8,N
1505539295.7,286046995.6,N
1505539315.5,286046995.2,N
1505539335.4,286046995.2,N
1505539355.2,286046999.3,N
1505539375.0,286046997.2,N
1505539375.9,286046997.2,N
1505539395.8,286046998.0,N
1505539415.6,286046996.9,N
1505539435.4,286046994.9,N
1505539455.3,286046996.3,N
1505539475.1,286046996.0,N
1505539476.0,286046996.0,N
1505539495.8,286046985.7,Y
1505539515.7,286046987.7,P
1505539535.5,286046992.4,N
1505539555.3,286047000.0,N
1505539575.2,286047001.7,N
1505539595.9,286047004.0,N
1505539615.7,286047004.7,N
1505539635.5,286047005.6,N
1505539655.4,286047005.2,N
1505539675.2,286047008.9,N
1505539695.0,286047009.9,N
1505539695.9,286047009.9,N
1505539715.8,286047006.6,N
1505539735.6,286047010.1,N
1505539755.4,286047012.3,N
1505539775.3,286047007.3,N
1505539795.1,286047008.4,N
1505539796.0,286047008.4,N
1505539815.8,286047011.6,N
1505539835.7,286047013.9,N
1505539855.5,286047011.0,N
1505539875.3,286047013.0,N
1505539895.2,286047016.8,N
1505539915.9,286047016.1,N
1505539935.7,286047017.9,N
1505539955.5,286047017.0,N
1505539975.4,286047018.4,N
1505539995.2,286047016.6,N
1505540015.0,286047017.2,N
1505540015.9,286047017.2,N
1505540035.8,286047014.1,N
1505540055.6,286047016.8,N
1505540075.4,286047013.2,N
1505540095.3,286047015.2,N
1505540115.1,286047015.9,Y
1505540135.8,286047002.0,P
1505540155.7,286047000.2,N
1505540175.5,286047003.1,N
1505540195.3,286047007.2,N
1505540215.2,286047006.9,N
1505540235.9,286047004.5,N
1505540255.7,286047007.5,N
1505540275.6,286047005.1,N
1505540295.4,286047005.3,N
1505540315.2,286047003.5,N
1505540335.0,286047002.6,N
1505540336.0,286047002.6,N
1505540355.8,286046999.8,N
1505540375.6,286047003.8,N
1505540395.4,286047003.8,N
1505540415.3,286047004.0,N
1505540435.1,286047000.2,N
1505540455.8,286047001.0,N
1505540475.7,286047000.8,N
1505540495.5,286046995.2,N
1505540515.3,286046997.6,N
1505540535.2,286046995.4,N
1505540555.9,286046996.4,N
1505540575.7,286046994.8,N
1505540595.6,286046992.5,N
1505540615.4,286046995.7,N
1505540635.2,286046991.2,N
1505540655.0,286046989.3,N
1505540655.9,286046989.3,N
1505540675.8,286046990.8,N
1505540695.6,286046989.0,N
1505540715.4,286046990.8,N
1505540735.3,286046994.1,N
1505540755.1,286046991.8,N
1505540775.8,286046990.4,N
1505540795.7,286046988.9,N
1505540815.5,286046989.7,N
1505540835.3,286046987.4,N
1505540855.2,286046988.9,N
1505540875.9,286046988.6,N
1505540895.7,286046991.5,N
1505540915.6,286046989.3,N
1505540935.4,286046989.6,N
1505540955.2,286046986.6,N
1505540975.1,286046985.1,Y
1505540976.0,286046985.1,P
1505540995.8,286046993.3,N
1505541015.6,286046996.2,N
1505541035.5,286046994.3,N
1505541055.3,286046992.2,N
1505541075.1,286046988.6,Y
1505541095.9,286046998.3,P
1505541115.7,286047000.6,N
1505541135.5,286047001.0,N
1505541155.3,286046999.0,N
1505541175.2,286046996.8,N
1505541195.0,286046999.6,N
1505541195.9,286046999.6,N
1505541215.7,286046997.4,N
1505541235.6,286046998.2,N
1505541255.4,286046998.1,N
1505541275.2,286046999.3,N
1505541295.1,286046998.4,N
1505541296.0,286046998.4,N
1505541315.8,286047002.2,N
1505541335.6,286047001.8,N
1505541355.5,286046999.7,N
1505541375.3,286047001.2,N
1505541395.1,286046999.7,N
1505541415.9,286047001.5,N
1505541435.7,286047000.4,N
1505541455.5,286047002.8,N
1505541475.4,286046998.6,N
1505541495.2,286047000.5,N
1505541515.0,286047002.8,N
1505541515.9,286047002.8,N
1505541535.7,286047004.1,N
1505541555.6,286047001.7,N
1505541575.4,286047001.3,N
1505541595.2,286047001.6,N
